{"data":{"norad_id":61565,"intl_designator":"2024-185P","name":"QIANFAN-32","alt_names":[],"object_type":"PAYLOAD","status":"ACTIVE","operator":null,"country":"PRC","launch_date":"2024-10-15","launch_site_code":"TAISC","launch_vehicle":null,"mission":null,"orbit_class":"UNKNOWN","rcs_meters":null,"size_class":null,"mass_kg":null,"dimensions":null,"purposes":[],"wikipedia_slug":null,"has_3d_model":false,"image_url":null,"decayed_at":null,"tle_current":{"epoch":"2026-09-22T20:03:56.071296Z","epoch_age_seconds":95571,"freshness":"FRESH","line1":"1 61565U 24185P   26265.83606564  .00000094  00000+0  12677-3 0  9990","line2":"2 61565  88.9866  51.7973 0008598 336.6564  23.4195 13.50806795106392","mean_motion":13.50806795,"eccentricity":0.0008598,"inclination_deg":88.9866,"raan_deg":51.7973,"arg_perigee_deg":336.6564,"mean_anomaly_deg":23.4195,"bstar":0.00012677,"rev_number":10639,"period_min":106.6029579752,"perigee_km":1062.8883353265,"apogee_km":1075.6949336064,"semimajor_km":7447.4286344665,"source":"CELESTRAK","updated_at":"2026-09-23T09:00:20.906664Z"}}}